Weather History for Tampa Knight Airport, FL

Change the Weather History Date:

Sunday, May 4, 2014

  Actual Average (KTPA) Record (KTPA)
Temperature  
Mean Temperature 73 °F 76 °F  
Max Temperature 86 °F 85 °F 94 °F (1935)
Min Temperature 60 °F 67 °F 52 °F (1921)
Degree Days  
Heating Degree Days 0 0  
Month to date heating degree days 0  
Since 1 July heating degree days 538  
Cooling Degree Days 8 11  
Month to date cooling degree days 43  
Year to date cooling degree days 503  
Growing Degree Days 23 (Base 50)    
Moisture  
Dew Point 57 °F    
Average Humidity 63    
Maximum Humidity 100    
Minimum Humidity 29    
Precipitation  
Precipitation 0.00 in 0.05 in 1.40 in (1978)
Month to date precipitation 0.20  
Year to date precipitation 10.30  
Sea Level Pressure  
Sea Level Pressure 30.07 in    
Wind  
Wind Speed 4 mph (North)    
Max Wind Speed 14 mph    
Max Gust Speed 23 mph    
Visibility 10 miles    
Events      
T = Trace of Precipitation, MM = Missing Value Source: NWS Daily Summary

Daily Weather History Graph

Daily Weather History Graph

Search for Another Location

Airport:

Trip Planner

Search our weather history database for the weather conditions in past years. The results will help you decide how hot, cold, wet, or windy it might be!

Date:

Astronomy

May. 04, 2014 Rise Set
Actual Time 6:47 AM EDT 8:05 PM EDT
Civil Twilight 6:22 AM EDT 8:30 PM EDT
Nautical Twilight 5:53 AM EDT 9:00 PM EDT
Astronomical Twilight 5:22 AM EDT 9:31 PM EDT
Moon 11:12 AM EDT (5/4) 12:07 AM EDT (5/4)
Length of Visible Light 14h 08m
Length of Day
13h 18m
Waxing Crescent, 27% of the Moon is Illuminated
May 4
Waxing Crescent
May 6
First Quarter
May 14
Full
May 21
Last Quarter
May 28
New

Hourly Weather History & Observations

Time (EDT) Temp. Heat Index Dew Point Humidity Pressure Visibility Wind Dir Wind Speed Gust Speed Precip Events Conditions
12:15 AM 64.4 °F - 59.0 °F 83% 30.07 in 10.0 mi North 5.8 mph - N/A   Clear
12:35 AM 64.4 °F - 59.0 °F 83% 30.07 in 10.0 mi NNE 5.8 mph - N/A   Clear
12:55 AM 64.4 °F - 59.0 °F 83% 30.08 in 10.0 mi NNE 4.6 mph - N/A   Clear
1:15 AM 62.6 °F - 59.0 °F 88% 30.08 in 10.0 mi NNE 3.5 mph - N/A   Clear
1:35 AM 62.6 °F - 59.0 °F 88% 30.07 in 10.0 mi Calm Calm - N/A   Clear
1:55 AM 62.6 °F - 59.0 °F 88% 30.07 in 10.0 mi North 3.5 mph - N/A   Clear
2:15 AM 62.6 °F - 59.0 °F 88% 30.06 in 10.0 mi North 3.5 mph - N/A   Clear
2:35 AM 62.6 °F - 59.0 °F 88% 30.06 in 10.0 mi NNE 3.5 mph - N/A   Clear
2:55 AM 62.6 °F - 59.0 °F 88% 30.06 in 10.0 mi Calm Calm - N/A   Clear
3:15 AM 62.6 °F - 59.0 °F 88% 30.06 in 10.0 mi Calm Calm - N/A   Clear
3:35 AM 62.6 °F - 59.0 °F 88% 30.06 in 10.0 mi Calm Calm - N/A   Clear
3:55 AM 60.8 °F - 59.0 °F 94% 30.06 in 10.0 mi Calm Calm - N/A   Clear
4:15 AM 62.6 °F - 59.0 °F 88% 30.06 in 10.0 mi Calm Calm - N/A   Clear
4:35 AM 60.8 °F - 59.0 °F 94% 30.06 in 10.0 mi Calm Calm - N/A   Clear
4:55 AM 60.8 °F - 59.0 °F 94% 30.06 in 10.0 mi Calm Calm - N/A   Clear
5:15 AM 62.6 °F - 59.0 °F 88% 30.06 in 10.0 mi Calm Calm - N/A   Clear
5:35 AM 60.8 °F - 59.0 °F 94% 30.06 in 10.0 mi Calm Calm - N/A   Clear
5:55 AM 60.8 °F - 59.0 °F 94% 30.07 in 10.0 mi Calm Calm - N/A   Clear
6:15 AM 60.8 °F - 59.0 °F 94% 30.07 in 7.0 mi Calm Calm - N/A   Clear
6:35 AM 60.8 °F - 59.0 °F 94% 30.08 in 7.0 mi Calm Calm - N/A   Clear
6:55 AM 60.8 °F - 60.8 °F 100% 30.09 in 5.0 mi Calm Calm - N/A   Clear
7:15 AM 60.8 °F - 60.8 °F 100% 30.09 in 5.0 mi Calm Calm - N/A   Clear
7:35 AM 62.6 °F - 60.8 °F 94% 30.09 in 10.0 mi Calm Calm - N/A   Clear
7:55 AM 64.4 °F - 62.6 °F 94% 30.10 in 10.0 mi Calm Calm - N/A   Clear
8:15 AM 68.0 °F - 60.8 °F 78% 30.11 in 10.0 mi Calm Calm - N/A   Clear
8:35 AM 69.8 °F - 60.8 °F 73% 30.11 in 10.0 mi North 5.8 mph - N/A   Clear
8:55 AM 71.6 °F - 62.6 °F 73% 30.11 in 10.0 mi North 5.8 mph - N/A   Clear
9:15 AM 71.6 °F - 62.6 °F 73% 30.11 in 10.0 mi North 5.8 mph - N/A   Clear
9:35 AM 73.4 °F - 62.6 °F 69% 30.12 in 10.0 mi North 3.5 mph - N/A   Clear
9:55 AM 75.2 °F - 60.8 °F 61% 30.12 in 10.0 mi North 8.1 mph - N/A   Clear
10:15 AM 77.0 °F - 59.0 °F 54% 30.12 in 10.0 mi NNE 8.1 mph - N/A   Clear
10:35 AM 77.0 °F - 55.4 °F 47% 30.12 in 10.0 mi North 5.8 mph - N/A   Clear
10:55 AM 78.8 °F - 53.6 °F 42% 30.12 in 10.0 mi North 11.5 mph 16.1 mph N/A   Clear
11:15 AM 78.8 °F - 53.6 °F 42% 30.12 in 10.0 mi North 9.2 mph - N/A   Clear
11:35 AM 80.6 °F 80.3 °F 53.6 °F 39% 30.12 in 10.0 mi North 10.4 mph 16.1 mph N/A   Clear
11:55 AM 80.6 °F - 50.0 °F 34% 30.12 in 10.0 mi North 8.1 mph 17.3 mph N/A   Clear
12:15 PM 80.6 °F 80.3 °F 53.6 °F 39% 30.11 in 10.0 mi NNE 10.4 mph - N/A   Clear
12:35 PM 80.6 °F - 50.0 °F 34% 30.11 in 10.0 mi North 9.2 mph - N/A   Clear
12:55 PM 82.4 °F - 50.0 °F 32% 30.10 in 10.0 mi NE 13.8 mph 18.4 mph N/A   Clear
1:15 PM 82.4 °F - 51.8 °F 35% 30.09 in 10.0 mi ENE 13.8 mph - N/A   Clear
1:35 PM 82.4 °F - 50.0 °F 32% 30.09 in 10.0 mi NE 5.8 mph 16.1 mph N/A   Clear
1:55 PM 82.4 °F - 51.8 °F 35% 30.08 in 10.0 mi NE 8.1 mph - N/A   Clear
2:15 PM 82.4 °F - 50.0 °F 32% 30.07 in 10.0 mi NE 11.5 mph 18.4 mph N/A   Clear
2:35 PM 84.2 °F - 51.8 °F 33% 30.07 in 10.0 mi NE 6.9 mph 17.3 mph N/A   Clear
2:55 PM 84.2 °F - 50.0 °F 30% 30.06 in 10.0 mi NNE 10.4 mph - N/A   Clear
3:15 PM 84.2 °F - 50.0 °F 30% 30.05 in 10.0 mi North 8.1 mph 23.0 mph N/A   Clear
3:35 PM 86.0 °F - 51.8 °F 31% 30.04 in 10.0 mi ENE 12.7 mph 16.1 mph N/A   Clear
3:55 PM 86.0 °F - 50.0 °F 29% 30.04 in 10.0 mi North 6.9 mph - N/A   Clear
4:15 PM 86.0 °F - 50.0 °F 29% 30.03 in 10.0 mi NNE 3.5 mph - N/A   Clear
4:35 PM 86.0 °F - 51.8 °F 31% 30.02 in 10.0 mi NNE 6.9 mph - N/A   Clear
4:55 PM 86.0 °F - 50.0 °F 29% 30.03 in 10.0 mi NE 5.8 mph - N/A   Clear
5:15 PM 86.0 °F - 51.8 °F 31% 30.03 in 10.0 mi NE 9.2 mph - N/A   Clear
5:35 PM 86.0 °F - 51.8 °F 31% 30.02 in 10.0 mi ENE 9.2 mph - N/A   Clear
5:55 PM 86.0 °F - 51.8 °F 31% 30.02 in 10.0 mi NE 4.6 mph - N/A   Clear
6:15 PM 86.0 °F - 51.8 °F 31% 30.02 in 10.0 mi Calm Calm - N/A   Clear
6:35 PM 82.4 °F 83.4 °F 62.6 °F 51% 30.02 in 10.0 mi Calm Calm - N/A   Clear
6:55 PM 80.6 °F 81.8 °F 62.6 °F 54% 30.03 in 10.0 mi West 6.9 mph - N/A   Clear
7:15 PM 80.6 °F 81.8 °F 62.6 °F 54% 30.03 in 10.0 mi West 5.8 mph - N/A   Clear
7:35 PM 80.6 °F 81.5 °F 60.8 °F 51% 30.03 in 10.0 mi NNW 4.6 mph - N/A   Clear
7:55 PM 78.8 °F - 60.8 °F 54% 30.04 in 10.0 mi NNW 4.6 mph - N/A   Clear
8:15 PM 78.8 °F - 60.8 °F 54% 30.04 in 10.0 mi NNW 5.8 mph - N/A   Clear
8:35 PM 77.0 °F - 60.8 °F 57% 30.05 in 10.0 mi NW 3.5 mph - N/A   Clear
8:55 PM 77.0 °F - 60.8 °F 57% 30.06 in 10.0 mi Calm Calm - N/A   Clear
9:15 PM 75.2 °F - 60.8 °F 61% 30.06 in 10.0 mi NNW 3.5 mph - N/A   Clear
9:35 PM 75.2 °F - 60.8 °F 61% 30.07 in 10.0 mi NNW 3.5 mph - N/A   Clear
9:55 PM 73.4 °F - 60.8 °F 65% 30.08 in 10.0 mi North 4.6 mph - N/A   Clear
10:15 PM 73.4 °F - 62.6 °F 69% 30.08 in 10.0 mi North 3.5 mph - N/A   Clear
10:35 PM 73.4 °F - 62.6 °F 69% 30.09 in 10.0 mi Calm Calm - N/A   Clear
10:55 PM 73.4 °F - 62.6 °F 69% 30.09 in 10.0 mi NNW 3.5 mph - N/A   Clear
11:15 PM 71.6 °F - 62.6 °F 73% 30.10 in 10.0 mi Calm Calm - N/A   Clear
11:35 PM 71.6 °F - 62.6 °F 73% 30.10 in 10.0 mi Calm Calm - N/A   Clear
11:55 PM 71.6 °F - 62.6 °F 73% 30.10 in 10.0 mi Calm Calm - N/A   Clear